Terminal Aerodrome Forecast
Issued by NWS Jacksonville, FL

Home | Current Version | Previous Version | Text Only | Print | Product List | Glossary On
Versions: 1 2 3 4 5 6 7 8 9 10 11 12 13 14 15 16 17 18 19 20 21 22 23 24 25 26 27 28 29 30 31 32 33 34 35
191
FTUS42 KJAX 232325
TAFSSI
TAF
KSSI 232325Z 2400/2424 27015G25KT P6SM SCT030
      TEMPO 2400/2402 BKN030
     FM240300 29012G22KT P6SM SKC
     FM241200 29011KT P6SM SKC
     FM241700 27009KT P6SM SKC=

USA.gov is the U.S. government's official web portal to all federal, state and local government web resources and services.